sat.trackr.live / text

‹ back to catalog

STARLINK-36046

NORAD 66810 · 2025-278V

PAYLOAD ACTIVE UNKNOWN

§ Identity

Operator
Country
US
Launch date
2025-12-01
Launch site
AFETR
Launch vehicle
Mass (kg)
RCS (m²)

Purposes: comms

External: N2YO · Heavens-Above · Gunter

§ Orbital elements

Epoch: 2026-05-25T02:27:47.891232Z

Period
94.27 min
Inclination
43.0019°
Eccentricity
0.0002023
Mean motion
15.27576981 rev/d
Perigee alt
481.7 km
Apogee alt
484.4 km
Semi-major
6,861.2 km
B*
4.4166e-4
RAAN
42.9767°
Arg perigee
218.3948°
Mean anomaly
141.6760°
Rev number
2,689

§ Raw data

STARLINK-360461 66810U 25278V   26145.10263763  .00011910  00000+0  44166-3 0  99962 66810  43.0019  42.9767 0002023 218.3948 141.6760 15.27576981 26898

JSON: /api/v1/satellites/66810 · /tle

For live sub-satellite position, see the globe view (requires WebGL).

§ Visibility from observer

Set your observer location to see the next 7 days of passes ≥ 10°. The values pass through the URL so the page stays shareable.

No JS? Fill the form by hand. The geolocation button needs JavaScript.